Raton, NM

9:30 AM MST on December 10, 2016 (GMT -0700)
Raton Municipal-Crews

Weather History for KRTN - May, 2014

Change the Weather History Date:

Thursday, May 29, 2014

  Actual Average (KTAD) Record (KTAD)
Temperature  
Mean Temperature 62 °F -  
Max Temperature 82 °F 77 °F 93 °F (2000)
Min Temperature 46 °F 47 °F 36 °F (1975)
Degree Days  
Heating Degree Days 2    
Growing Degree Days 12 (Base 50)    
Moisture  
Dew Point 43 °F    
Average Humidity 50    
Maximum Humidity 86    
Minimum Humidity 27    
Precipitation  
Precipitation 0.00 in - - ()
Sea Level Pressure  
Sea Level Pressure 29.97 in    
Wind  
Wind Speed 8 mph (South)    
Max Wind Speed 25 mph    
Max Gust Speed 36 mph    
Visibility 10 miles    
Events Thunderstorm    
Averages and records for this station are not official NWS values.
T = Trace of Precipitation, MM = Missing Value Source: NWS Daily Summary

Daily Weather History Graph

Daily Weather History Graph

Search for Another Location

Airport or City:

Trip Planner

Search our weather history database for the weather conditions in past years. The results will help you decide how hot, cold, wet, or windy it might be!

Date:

Astronomy

May. 29, 2014 Rise Set
Actual Time 5:41 AM MDT 8:09 PM MDT
Civil Twilight 5:11 AM MDT 8:39 PM MDT
Nautical Twilight 4:34 AM MDT 9:16 PM MDT
Astronomical Twilight 3:54 AM MDT 9:57 PM MDT
Moon 6:35 AM MDT (5/29) 9:03 PM MDT (5/29)
Length of Visible Light 15h 27m
Length of Day
14h 27m
New Moon, 1% of the Moon is Illuminated
May 29
New Moon
Jun 5
First Quarter
Jun 12
Full
Jun 19
Last Quarter
Jun 27
New

Hourly Weather History & Observations

Time (MDT) Temp. Dew Point Humidity Pressure Visibility Wind Dir Wind Speed Gust Speed Precip Events Conditions
12:53 AM 51.1 °F 44.1 °F 77% 29.98 in 10.0 mi NNE 8.1 mph - N/A   Clear
2:53 AM 51.1 °F 43.0 °F 74% 29.99 in 10.0 mi ENE 5.8 mph - N/A   Clear
3:53 AM 48.9 °F 42.1 °F 77% 30.02 in 10.0 mi North 8.1 mph - N/A   Clear
4:53 AM 46.9 °F 43.0 °F 86% 30.02 in 10.0 mi NE 5.8 mph - N/A   Clear
5:53 AM 46.9 °F 42.1 °F 83% 30.02 in 10.0 mi NNE 5.8 mph - N/A   Clear
6:53 AM 51.1 °F 44.1 °F 77% 30.00 in 10.0 mi ENE 4.6 mph - N/A   Clear
7:53 AM 57.0 °F 46.0 °F 67% 29.99 in 10.0 mi NE 3.5 mph - N/A   Clear
8:53 AM 64.9 °F 44.1 °F 47% 29.98 in 10.0 mi Variable 4.6 mph - N/A   Clear
9:53 AM 70.0 °F 43.0 °F 38% 29.96 in 10.0 mi Variable 3.5 mph - N/A   Clear
10:53 AM 73.0 °F 45.0 °F 37% 29.94 in 10.0 mi South 11.5 mph - N/A   Clear
11:53 AM 75.0 °F 45.0 °F 34% 29.93 in 10.0 mi South 8.1 mph - N/A   Clear
12:53 PM 78.1 °F 45.0 °F 31% 29.90 in 10.0 mi SSW 8.1 mph - N/A   Clear
1:53 PM 79.0 °F 42.1 °F 27% 29.89 in 10.0 mi SE 6.9 mph - N/A   Clear
2:51 PM 78.8 °F 44.6 °F 30% 30.13 in 10.0 mi SSW 15.0 mph 21.9 mph N/A Thunderstorm Partly Cloudy
3:18 PM 75.0 °F 45.0 °F 34% 30.13 in 10.0 mi WSW 17.3 mph 23.0 mph N/A   Scattered Clouds
4:53 PM 73.0 °F 37.9 °F 28% 29.90 in 10.0 mi NW 16.1 mph 25.3 mph N/A   Clear
6:53 PM 70.0 °F 39.9 °F 33% 29.90 in 10.0 mi WNW 25.3 mph 35.7 mph N/A   Clear
7:53 PM 69.1 °F 39.9 °F 35% 29.91 in 10.0 mi ESE 9.2 mph - N/A   Clear
8:53 PM 66.0 °F 43.0 °F 43% 29.92 in 10.0 mi SSW 18.4 mph 25.3 mph N/A   Partly Cloudy
9:53 PM 64.0 °F 44.1 °F 48% 29.94 in 10.0 mi WSW 10.4 mph - N/A   Clear
10:53 PM 64.0 °F 42.1 °F 45% 29.91 in 10.0 mi SW 11.5 mph - N/A   Clear
11:53 PM 62.1 °F 42.1 °F 48% 29.91 in 10.0 mi Calm Calm - N/A   Clear